Regional Weather Roundup
Issued by NWS Binghamton, NY

Home | Current Version | Previous Version | Text Only | Print | Product List | Glossary On
Versions: 1 2 3 4 5 6 7 8 9 10 11 12 13 14 15 16 17 18 19 20 21 22 23 24 25 26 27 28 29 30 31 32 33 34 35 36 37 38 39 40 41 42 43 44 45 46 47 48 49 50
000
ASUS41 KBGM 241710
RWRBGM

REGIONAL WEATHER ROUNDUP
NATIONAL WEATHER SERVICE BINGHAMTON NY
100 PM EDT SAT JUN 24 2017

Note: "fair" indicates few or no clouds below 12,000 feet with no
significant weather and/or obstructions to visibility.

* = Station(s) that does not report precipitation, such as rain,
snow, etc, also no thunder or fog.

NYZ009-015>018-022>025-036-037-044>046-055>057-062-241800
...Central New York...

CITY           SKY/WX    TMP DP  RH WIND       PRES   REMARKS
Binghamton     SUNNY     72  50  46 NW12G21   29.82
Cortland       FAIR      73  54  49 W9G20     29.80S
Dansville      PTSUNNY   78  53  41 MISG      29.79R
Elmira         NOT AVBL
Seneca Falls   MOSUNNY   81  54  39 W9G21     29.77S
Ithaca         PTSUNNY   75  55  50 NW13      29.80S
Hamilton       MOSUNNY   73  52  46 NW8G22    29.79R
Hornell        PTSUNNY   75  54  46 W12G24    29.84S
Monticello     MOSUNNY   75  54  46 NW17      29.80S
Norwich        PTSUNNY   75  48  38 NW10G20   29.80R
Oneonta        SUNNY     72 N/A N/A N10G17    29.81R
Penn Yan       PTSUNNY   77  52  41 W14       29.79R
Rome           MOSUNNY   77  55  46 W20G28    29.75R
Sidney         MOSUNNY   73  52  46 NW12G21   29.80R
Syracuse       MOSUNNY   76  55  48 W18       29.75R
$$

PAZ038>040-043-044-047-048-072-241800
...Northeast Pennsylvania...

CITY           SKY/WX    TMP DP  RH WIND       PRES   REMARKS
Hazleton         N/A     79  55  44 W8G16     29.87R
Scranton       MOSUNNY   80  54  40 NW10G21   29.81R
$$
&&
KEY
WCI = Wind Chill Index
VSB = Visibility
HX  = Heat Index
$$



USA.gov is the U.S. government's official web portal to all federal, state and local government web resources and services.